Skip Page Navigation
NASA JPL Caltech
NASA Logo - Jet Propulsion Laboratory + View the NASA Portal
+ Near-Earth Object (NEO) Program
Search JPL
JPL Home Earth Solar System Stars & Galaxies Technology
JPL Solar System Dynamics
BODIES ORBITS EPHEMERIDES TOOLS PHYSICAL DATA DISCOVERY FAQ SITE MAP
JPL Small-Body Database Browser
Search: [ help ]  
(2011 MD)
Classification: Amor [NEO]          SPK-ID: 3568303
Ephemeris | Orbit Diagram | Orbital Elements | Physical Parameters | Close-Approach Data ]

[ hide orbit diagram ]
Orbit Diagram
Note: Make sure you have Java enabled on your browser to see the applet. This applet is provided as a 3D orbit visualization tool. The applet was implemented using 2-body methods, and hence should not be used for determining accurate long-term trajectories (over several years or decades) or planetary encounter circumstances. For accurate long-term ephemerides, please instead use our Horizons system.
Orbit Viewer

Additional Notes: the orbits shown in the applet are color coded. The planets are white lines, and the asteroid/comet is a blue line. The bright white line indicates the portion of the orbit that is above the ecliptic plane, and the darker portion is below the ecliptic plane. Likewise for the asteroid/comet orbit, the light blue indicates the portion above the ecliptic plane, and the dark blue the portion below the ecliptic plane.

Orbit Viewer applet originally written and kindly provided by Osamu Ajiki (AstroArts), and further modified by Ron Baalke (JPL).


Orbital Elements at Epoch 2456400.5 (2013-Apr-18.0) TDB
Reference: JPL 38 (heliocentric ecliptic J2000)
 Element Value Uncertainty (1-sigma)   Units 
e .03710738974109751 2.4634e-07  
a 1.056305735155503 2.5902e-07 AU
q 1.017108986555332 1.1428e-08 AU
i 2.445765907539487 4.8109e-06 deg
node 271.6319333911855 2.5126e-05 deg
peri 5.955857389965848 6.0571e-05 deg
M 237.830556841855 0.00028248 deg
tp 2456535.068365425639
(2013-Aug-30.56836543)
0.00036007 JED
period 396.5362393484909
1.09
0.00014585
3.993e-07
d
yr
n .9078615376780697 3.3393e-07 deg/d
Q 1.095502483755675 2.6863e-07 AU
  Orbit Determination Parameters
   # obs. used (total)      549  
   data-arc span      12 days  
   first obs. used      2011-06-21  
   last obs. used      2011-07-03  
   planetary ephem.      DE405  
   SB-pert. ephem.      SB405-CPV-2  
   condition code      2  
   fit RMS      .45681  
   data source      ORB  
   producer      Otto Matic  
   solution date      2013-Jan-31 00:52:00  

Additional Information
 Earth MOID = .00124547 AU 
 T_jup = 5.826 
[ show covariance matrix ]

Ephemeris | Orbit Diagram | Orbital Elements | Physical Parameters | Close-Approach Data ]

Physical Parameter Table
Parameter Symbol Value Units Sigma Reference Notes
absolute magnitude H 28.073 mag .49504 38 autocmod 2.5b
rotation period rot_per 0.1937 h n/a Asteroid Lightcurve DataBase (Rev. 2013-May-01) Published Reference List:
[Ryan, W. (2011) http://infohost.nmt.edu/~bryan/research/work/ mro_images/]
[Skiff, B.A. (2011) Posting on CALL web site. http://www.minorplanet.info/call.html]

[ show close-approach data ]
Ephemeris | Orbit Diagram | Orbital Elements | Physical Parameters | Close-Approach Data ]
ABOUT SSD CREDITS/AWARDS PRIVACY/COPYRIGHT GLOSSARY LINKS
FirstGov 2013-Jun-20 00:33 UT
(server date/time)  
NASA Home Page
Site Manager:   Donald K. Yeomans
Webmaster  Alan B. Chamberlin